When you browse on this site, cookies collect data to enhance your experience and personalize the content and advertising you see.
Visit our Privacy Policy to learn more. By continuing to use the site, you agree to this use of cookies and data.
  • In Romania
  • List of Countries
  • For 7 days
  • Water Temperature
  • Weather Map
  • Weather Widgets
  • user-avatar
    Login

    Hourly Weather Escuintla

    Today, 26 August, Monday

    Time Temperature Precipitation Wind Pressure Humidity
    00:00 +24°C° 0 mm 2 mps 728 mmHg 91%
    01:00 +24°C° 0 mm 2 mps 728 mmHg 89%
    02:00 +24°C° 0 mm 2 mps 728 mmHg 88%
    03:00 +24°C° 0 mm 2 mps 727 mmHg 86%
    04:00 +24°C° 0 mm 2 mps 727 mmHg 85%
    05:00 +24°C° 0 mm 1 mps 728 mmHg 83%
    06:00 +24°C° 0 mm 1 mps 728 mmHg 81%
    07:00 +26°C° 0 mm 1 mps 728 mmHg 75%
    08:00 +29°C° 0 mm 1 mps 728 mmHg 70%
    09:00 +29°C° 0 mm 0 mps 729 mmHg 64%
    10:00 +32°C° 0.2 mm 1 mps 729 mmHg 64%
    11:00 +32°C° 0.2 mm 1 mps 728 mmHg 64%
    12:00 +33°C° 0.2 mm 1 mps 728 mmHg 64%
    13:00 +32°C° 0.5 mm 1 mps 728 mmHg 67%
    14:00 +32°C° 0.5 mm 1 mps 727 mmHg 69%
    15:00 +32°C° 0.5 mm 1 mps 727 mmHg 72%
    16:00 +30°C° 0.4 mm 1 mps 727 mmHg 78%
    17:00 +29°C° 0.4 mm 1 mps 727 mmHg 84%
    18:00 +26°C° 0.4 mm 0 mps 727 mmHg 90%
    19:00 +27°C° 0.2 mm 1 mps 727 mmHg 91%
    20:00 +27°C° 0.2 mm 1 mps 728 mmHg 91%
    21:00 +26°C° 0.2 mm 1 mps 728 mmHg 92%
    22:00 +25°C° 0 mm 1 mps 728 mmHg 91%
    23:00 +25°C° 0 mm 1 mps 728 mmHg 90%

    Tomorrow, 27 August, Tuesday

    Time Temperature Precipitation Wind Pressure Humidity
    00:00 +25°C° 0 mm 2 mps 728 mmHg 89%
    01:00 +25°C° 0 mm 2 mps 728 mmHg 87%
    02:00 +25°C° 0 mm 2 mps 728 mmHg 86%
    03:00 +24°C° 0 mm 2 mps 727 mmHg 84%
    04:00 +24°C° 0 mm 2 mps 727 mmHg 84%
    05:00 +24°C° 0 mm 2 mps 727 mmHg 83%
    06:00 +24°C° 0 mm 1 mps 727 mmHg 82%
    07:00 +26°C° 0 mm 1 mps 728 mmHg 77%
    08:00 +29°C° 0 mm 1 mps 728 mmHg 71%
    09:00 +29°C° 0 mm 0 mps 729 mmHg 65%
    10:00 +32°C° 0.1 mm 1 mps 729 mmHg 64%
    11:00 +32°C° 0.1 mm 1 mps 728 mmHg 63%
    12:00 +33°C° 0.1 mm 1 mps 728 mmHg 62%
    13:00 +32°C° 0.6 mm 1 mps 728 mmHg 66%
    14:00 +32°C° 0.6 mm 1 mps 727 mmHg 71%
    15:00 +31°C° 0.6 mm 1 mps 727 mmHg 75%
    16:00 +30°C° 0.8 mm 1 mps 727 mmHg 81%
    17:00 +29°C° 0.8 mm 1 mps 727 mmHg 86%
    18:00 +26°C° 0.8 mm 0 mps 727 mmHg 91%
    19:00 +27°C° 0.5 mm 1 mps 728 mmHg 92%
    20:00 +26°C° 0.5 mm 1 mps 728 mmHg 92%
    21:00 +25°C° 0.5 mm 1 mps 729 mmHg 92%
    22:00 +25°C° 0.1 mm 2 mps 729 mmHg 91%
    23:00 +25°C° 0.1 mm 2 mps 729 mmHg 90%

    Day after tomorrow, 28 August, Wednesday

    Time Temperature Precipitation Wind Pressure Humidity
    00:00 +24°C° 0.1 mm 2 mps 729 mmHg 90%
    01:00 +24°C° 0 mm 2 mps 729 mmHg 88%
    02:00 +24°C° 0 mm 2 mps 728 mmHg 86%
    03:00 +24°C° 0 mm 2 mps 728 mmHg 85%
    04:00 +24°C° 0 mm 2 mps 728 mmHg 84%
    05:00 +24°C° 0 mm 2 mps 728 mmHg 82%
    06:00 +24°C° 0 mm 2 mps 728 mmHg 81%
    07:00 +27°C° 0 mm 1 mps 729 mmHg 75%
    08:00 +29°C° 0 mm 1 mps 729 mmHg 69%
    09:00 +31°C° 0 mm 1 mps 730 mmHg 64%
    10:00 +31°C° 0.1 mm 1 mps 730 mmHg 63%
    11:00 +32°C° 0.1 mm 1 mps 729 mmHg 62%
    12:00 +34°C° 0.1 mm 2 mps 729 mmHg 62%
    13:00 +32°C° 0.6 mm 2 mps 729 mmHg 64%
    14:00 +32°C° 0.6 mm 1 mps 728 mmHg 67%
    15:00 +31°C° 0.6 mm 1 mps 728 mmHg 69%
    16:00 +30°C° 0.5 mm 1 mps 728 mmHg 75%
    17:00 +29°C° 0.5 mm 1 mps 728 mmHg 82%
    18:00 +25°C° 0.5 mm 0 mps 728 mmHg 88%
    19:00 +27°C° 0 mm 1 mps 728 mmHg 88%
    20:00 +26°C° 0 mm 1 mps 729 mmHg 88%
    21:00 +25°C° 0 mm 2 mps 729 mmHg 88%
    22:00 +24°C° 0 mm 2 mps 729 mmHg 86%
    23:00 +24°C° 0 mm 2 mps 729 mmHg 84%

    29 August, Thursday

    Time Temperature Precipitation Wind Pressure Humidity
    00:00 +24°C° 0 mm 2 mps 729 mmHg 82%
    01:00 +24°C° 0 mm 2 mps 729 mmHg 80%
    02:00 +24°C° 0 mm 2 mps 729 mmHg 78%
    03:00 +24°C° 0 mm 2 mps 728 mmHg 76%
    04:00 +24°C° 0 mm 2 mps 728 mmHg 75%
    05:00 +24°C° 0 mm 2 mps 729 mmHg 73%
    06:00 +24°C° 0 mm 2 mps 729 mmHg 72%
    07:00 +26°C° 0 mm 2 mps 729 mmHg 68%
    08:00 +28°C° 0 mm 1 mps 730 mmHg 63%
    09:00 +30°C° 0 mm 1 mps 730 mmHg 59%
    10:00 +31°C° 0 mm 1 mps 730 mmHg 55%
    11:00 +32°C° 0 mm 1 mps 730 mmHg 51%
    12:00 +33°C° 0 mm 1 mps 729 mmHg 48%
    13:00 +34°C° 0 mm 2 mps 729 mmHg 50%
    14:00 +32°C° 0 mm 2 mps 728 mmHg 52%
    15:00 +32°C° 0 mm 2 mps 727 mmHg 55%
    16:00 +31°C° 0.2 mm 1 mps 728 mmHg 65%
    17:00 +29°C° 0.2 mm 1 mps 728 mmHg 76%
    18:00 +25°C° 0.2 mm 0 mps 728 mmHg 87%
    19:00 +26°C° 0.3 mm 1 mps 729 mmHg 87%
    20:00 +25°C° 0.3 mm 1 mps 729 mmHg 87%
    21:00 +25°C° 0.3 mm 2 mps 730 mmHg 87%
    22:00 +24°C° 0.1 mm 2 mps 730 mmHg 85%
    23:00 +24°C° 0.1 mm 2 mps 730 mmHg 84%

    30 August, Friday

    Time Temperature Precipitation Wind Pressure Humidity
    00:00 +24°C° 0.1 mm 2 mps 730 mmHg 82%
    01:00 +24°C° 0.1 mm 2 mps 729 mmHg 80%
    02:00 +24°C° 0.1 mm 2 mps 729 mmHg 78%
    03:00 +23°C° 0.1 mm 2 mps 728 mmHg 76%
    04:00 +23°C° 0 mm 2 mps 728 mmHg 74%
    05:00 +23°C° 0 mm 2 mps 729 mmHg 71%
    06:00 +23°C° 0 mm 2 mps 729 mmHg 69%
    07:00 +25°C° 0 mm 2 mps 729 mmHg 66%
    08:00 +28°C° 0 mm 1 mps 729 mmHg 62%
    09:00 +30°C° 0 mm 1 mps 730 mmHg 59%
    10:00 +31°C° 0 mm 1 mps 729 mmHg 58%
    11:00 +32°C° 0 mm 1 mps 729 mmHg 56%
    12:00 +33°C° 0 mm 1 mps 729 mmHg 55%
    13:00 +32°C° 0.2 mm 2 mps 728 mmHg 59%
    14:00 +32°C° 0.2 mm 2 mps 727 mmHg 63%
    15:00 +31°C° 0.2 mm 2 mps 727 mmHg 67%
    16:00 +30°C° 0.4 mm 1 mps 727 mmHg 75%
    17:00 +28°C° 0.4 mm 1 mps 727 mmHg 83%
    18:00 +27°C° 0.4 mm 1 mps 727 mmHg 92%
    19:00 +26°C° 0.1 mm 1 mps 728 mmHg 92%
    20:00 +26°C° 0.1 mm 1 mps 729 mmHg 92%
    21:00 +25°C° 0.1 mm 1 mps 729 mmHg 91%
    22:00 +25°C° 0 mm 1 mps 729 mmHg 91%
    23:00 +24°C° 0 mm 1 mps 729 mmHg 91%

    31 August, Saturday

    Time Temperature Precipitation Wind Pressure Humidity
    00:00 +24°C° 0 mm 2 mps 729 mmHg 90%
    01:00 +24°C° 0 mm 2 mps 729 mmHg 89%
    02:00 +24°C° 0 mm 2 mps 728 mmHg 88%
    03:00 +23°C° 0 mm 2 mps 728 mmHg 87%
    04:00 +23°C° 0 mm 2 mps 728 mmHg 85%
    05:00 +23°C° 0 mm 2 mps 728 mmHg 83%
    06:00 +23°C° 0 mm 2 mps 729 mmHg 81%
    07:00 +25°C° 0 mm 1 mps 729 mmHg 76%
    08:00 +28°C° 0 mm 1 mps 729 mmHg 71%
    09:00 +30°C° 0 mm 1 mps 730 mmHg 67%
    10:00 +30°C° 0.1 mm 1 mps 729 mmHg 65%
    11:00 +31°C° 0.1 mm 1 mps 729 mmHg 64%
    12:00 +32°C° 0.1 mm 1 mps 729 mmHg 62%
    13:00 +32°C° 0.5 mm 1 mps 728 mmHg 66%
    14:00 +31°C° 0.5 mm 1 mps 727 mmHg 69%
    15:00 +31°C° 0.5 mm 2 mps 726 mmHg 73%
    16:00 +30°C° 0.9 mm 1 mps 727 mmHg 80%
    17:00 +28°C° 0.9 mm 1 mps 727 mmHg 87%
    18:00 +25°C° 0.9 mm 0 mps 727 mmHg 94%
    19:00 +26°C° 1.3 mm 1 mps 728 mmHg 93%
    20:00 +26°C° 1.3 mm 1 mps 728 mmHg 93%
    21:00 +25°C° 1.3 mm 1 mps 729 mmHg 93%
    22:00 +25°C° 2.7 mm 1 mps 729 mmHg 94%
    23:00 +24°C° 2.7 mm 1 mps 729 mmHg 95%
    Show more